Mentions légales

Ce site est édité par :


Association Club Aérien Lille Métropole


Route de l’Aéroport


Zone aviation de loisirs


59810 Lesquin


Tél. : 03 20 60 18 54


Email : info@calm.club

Directeur de la publication :

Jacques Flotat

Hébergeur :


OVH


2 Rue Kellermann


59100 Roubaix

 

La météo actuelle sur la plateforme de Lesquin LFQQ

TAF LFQQ
LFQQ 081100Z 0812/0918 VRB03KT 9999 SCT030 PROB30 TEMPO 0815/0818 4000 SHRA BKN020TCU BECMG 0820/0823 4000 BR BECMG 0900/0903 0300 FZFG VV/// BECMG 0911/0913 4000 BR BKN003 BECMG 0913/0915 8000 NSW NSC

Venir nous rencontrer

Route de l’Aéroport

59810 Lesquin

 

Téléphone : 03 20 60 18 54

Du mardi au samedi de 10h30 à 12h30

et de 13h à 18h.

Suivre notre actualité